[[{"header":{"parameterUnit":"m.s-1","parameterCategory":1,"la1":30.2992,"la2":30.254,"lo1":-89.0895,"lo2":-89.0443,"dy":0.0025,"dx":0.0025,"nx":19,"ny":19,"refTime":"2026-04-28T09:00:00:Z","depth":0,"parameterNumber":2,"parameterNumberName":"U-component_of_WINDS"},"data":[0,0,0,-0.2955,-0.2955,-0.2968,-0.2968,-0.2976,-0.2976,0,0,0,0,0,0,0,0,0,0,0,-0.2946,-0.2945,-0.2955,-0.2955,-0.2968,-0.2968,-0.2976,-0.2976,0,0,0,0,0,0,0,0,0,0,0,-0.2946,-0.2946,-0.2945,-0.2955,-0.2968,-0.2968,-0.2976,-0.2969,0,0,0,0,0,0,0,0,0,0,-0.2958,-0.2945,-0.2946,-0.2945,-0.2955,-0.2968,-0.2968,-0.2969,-0.297,-0.2967,0,-0.2962,0,-0.2969,-0.2976,-0.2976,0,0,0,-0.2959,-0.2944,-0.2952,-0.2945,-0.2955,-0.2967,-0.2963,-0.2969,-0.297,-0.2967,-0.2962,-0.2963,-0.2969,-0.2976,-0.2976,-0.2945,-0.2945,0,0,-0.2958,-0.2945,-0.2952,-0.2952,-0.295,-0.2962,-0.2963,-0.297,-0.2964,-0.2963,-0.2963,-0.2969,-0.2976,-0.2976,-0.2945,-0.2945,0,0,0,-0.2953,-0.2944,-0.2953,-0.2952,-0.2955,-0.2963,-0.2964,-0.2964,-0.2967,-0.2964,-0.297,-0.2976,-0.2976,-0.2946,-0.2945,-0.2917,0,0,0,-0.2953,-0.2942,-0.2952,-0.2944,-0.2955,-0.2959,-0.2957,-0.2967,-0.2968,-0.2969,-0.2976,-0.2976,-0.2946,-0.2946,-0.2919,-0.2906,0,0,0,-0.2947,-0.2941,-0.2941,-0.2944,-0.2949,-0.296,-0.2964,-0.2967,-0.2972,-0.2976,-0.2976,-0.2946,-0.2946,-0.292,-0.2908,-0.2894,0,0,0,-0.2936,-0.2916,-0.2941,-0.292,-0.2949,-0.2942,-0.2964,-0.296,-0.296,-0.2976,-0.2946,-0.2945,-0.292,-0.291,-0.2896,-0.288,-0.2873,0,0,-0.2903,-0.2911,-0.29,-0.2923,-0.2909,-0.2941,-0.2922,-0.2935,-0.2947,-0.2945,-0.2945,-0.2918,-0.2908,-0.2895,-0.2834,-0.2828,0,0,0,-0.2886,-0.2878,-0.2877,-0.2877,-0.2885,-0.2892,-0.2909,-0.2913,-0.2913,-0.2943,-0.291,-0.2904,-0.2897,-0.289,-0.2885,-0.2879,-0.2942,-0.2942,-0.2942,-0.2822,-0.2838,-0.2821,-0.2839,-0.2839,-0.2856,-0.2857,-0.2867,-0.2883,-0.2875,-0.2875,-0.2836,-0.2828,-0.2824,-0.2818,-0.2868,-0.2868,-0.2868,-0.2868,-0.2776,-0.2767,-0.279,-0.2782,-0.2799,-0.2793,-0.2809,-0.2821,-0.2818,-0.2837,-0.2832,-0.2852,-0.2816,-0.2812,-0.2866,-0.2866,-0.2866,-0.2866,-0.2866,-0.2736,-0.2735,-0.2741,-0.2742,-0.2741,-0.276,-0.2756,-0.2772,-0.2787,-0.2781,-0.2783,-0.2784,-0.2787,-0.2781,-0.2781,-0.2781,-0.2781,-0.2781,-0.278,-0.2692,-0.27,-0.2694,-0.2702,-0.2704,-0.2709,-0.2726,-0.2728,-0.2735,-0.2748,-0.2748,-0.2765,-0.281,-0.2821,-0.2778,-0.2779,-0.2779,-0.2779,-0.2779,-0.2641,-0.2655,-0.2646,-0.2648,-0.2659,-0.2657,-0.2677,-0.2681,-0.2686,-0.2683,-0.2702,-0.2732,-0.2741,-0.2746,-0.2755,-0.2698,-0.2698,-0.2698,-0.2698,-0.2607,-0.2614,-0.2608,-0.2611,-0.2614,-0.2632,-0.2622,-0.2635,-0.2651,-0.2655,-0.2665,-0.2679,-0.2682,-0.269,-0.2695,-0.2704,-0.2636,-0.2636,-0.2635,-0.2577,-0.2584,-0.2572,-0.2588,-0.2597,-0.2605,-0.2596,-0.2597,-0.2618,-0.2633,-0.2658,-0.2661,-0.2683,-0.2689,-0.2705,-0.2713,-0.273,0,0]},{"header":{"parameterUnit":"m.s-1","parameterCategory":1,"la1":30.2992,"la2":30.254,"lo1":-89.0895,"lo2":-89.0443,"dy":0.0025,"dx":0.0025,"nx":19,"ny":19,"refTime":"2026-04-28T09:00:00:Z","depth":0,"parameterNumber":3,"parameterNumberName":"V-component_of_WINDS"},"data":[0,0,0,5.9605,5.9607,5.9678,5.9678,5.9783,5.9784,0,0,0,0,0,0,0,0,0,0,0,5.9596,5.9597,5.9605,5.9607,5.9678,5.9678,5.9783,5.9784,0,0,0,0,0,0,0,0,0,0,0,5.9595,5.9597,5.9598,5.9608,5.9678,5.9678,5.9782,5.9723,0,0,0,0,0,0,0,0,0,0,5.9652,5.9655,5.9596,5.9598,5.9608,5.9678,5.9678,5.972,5.9727,5.9758,0,5.9791,0,5.9789,5.9792,5.9793,0,0,0,5.9598,5.965,5.9659,5.9598,5.9609,5.9677,5.9643,5.9724,5.9731,5.9767,5.9792,5.9796,5.9791,5.9793,5.9793,6.0009,6.001,0,0,5.9594,5.9614,5.9653,5.9664,5.9657,5.9641,5.9646,5.9728,5.9756,5.9793,5.9798,5.9793,5.9794,5.9795,6.0008,6.0009,0,0,0,5.9589,5.9612,5.9618,5.966,5.9672,5.9643,5.9648,5.9752,5.9753,5.9799,5.9794,5.9794,5.9796,6.0006,6.0008,6.01,0,0,0,5.9586,5.9609,5.9617,5.963,5.9671,5.9714,5.9671,5.9747,5.9756,5.9794,5.9794,5.9797,6.0004,6.0007,6.0094,6.0139,0,0,0,5.9587,5.9609,5.9623,5.9631,5.9662,5.9712,5.9717,5.9748,5.9753,5.9793,5.9797,6.0003,6.0007,6.0088,6.013,6.0201,0,0,0,5.9593,5.9703,5.9625,5.9745,5.9662,5.9769,5.9716,5.9794,5.9838,5.9795,6.0005,6.0008,6.0087,6.0125,6.0196,6.0265,6.0296,0,0,5.9742,5.9721,5.979,5.9723,5.9849,5.9756,5.9894,5.9915,5.9899,5.9973,5.9978,6.0096,6.013,6.02,6.0463,6.0488,0,0,0,5.9844,5.9894,5.9922,5.9967,5.9987,6.0007,6.0005,6.0012,6.0074,5.9942,6.014,6.016,6.02,6.0232,6.0253,6.0286,6.0024,6.0024,6.0023,6.0082,6.0058,6.017,6.0154,6.0198,6.0195,6.0227,6.0236,6.0198,6.0245,6.0267,6.0429,6.0467,6.0483,6.0518,6.0301,6.0302,6.0302,6.0302,6.0297,6.0364,6.0311,6.0401,6.0374,6.0448,6.0449,6.0419,6.0483,6.0411,6.0445,6.0368,6.0511,6.054,6.0309,6.0308,6.0307,6.0306,6.0306,6.0451,6.0478,6.0487,6.0549,6.0599,6.0578,6.0642,6.0614,6.0589,6.0623,6.0642,6.064,6.0635,6.0634,6.0635,6.0635,6.0636,6.0636,6.0637,6.0606,6.0613,6.0672,6.0702,6.0727,6.0756,6.0754,6.0777,6.0795,6.0769,6.0769,6.0726,6.053,6.0481,6.0645,6.0644,6.0643,6.0642,6.0641,6.0832,6.0777,6.0868,6.0893,6.0926,6.0977,6.0941,6.099,6.1005,6.1038,6.0987,6.0847,6.0822,6.0806,6.0765,6.0992,6.0992,6.0992,6.0992,6.0961,6.0947,6.1034,6.1075,6.1113,6.109,6.1191,6.1191,6.118,6.1188,6.1151,6.1095,6.1079,6.1064,6.1041,6.1003,6.1285,6.1286,6.1286,6.1099,6.1087,6.118,6.1171,6.1195,6.1215,6.1309,6.1358,6.1335,6.1297,6.1193,6.118,6.1089,6.1061,6.1021,6.0986,6.0915,0,0]}]]